Flag for United Kingdom Weather past 2 weeks in St Helens, England, United Kingdom

Now
72 °F

Passing clouds.


Feels Like: 77 °F
Forecast: 58 / 70 °F
Wind: 8 mph from Southeast

Location: Liverpool Airport

Current Time: Jul 3, 2015 at 1:59:41 PM

Latest Report: Jul 3, 2015 at 1:20 PM


Visibility: N/A

Pressure: 30.24 "Hg

Humidity: 50%

Dew point: 52 °F

Location of St HelensLocation

Historic Weather in St Helens — Graph

°F

St Helens temperature yesterday

Maximum temperature yesterday: 70 °F (at 10:50 AM)
Minimum temperature yesterday: 57 °F (at 11:20 PM)
Average temperature yesterday: 63 °F

Past Weeks' High & Low Weather Summary

 TemperatureHumidityPressure
High82 °F (Jun 30, 3:50 PM)100% (Jun 20, 1:50 AM)30.30 "Hg (Jun 20, 1:50 AM)
Low50 °F (Jun 22, 5:50 AM)45% (Jun 30, 4:50 PM)29.77 "Hg (Jul 1, 3:50 PM)
Average62 °F77%30.04 "Hg
* Reported Jun 18 12:20 PM — Jul 3 12:50 PM, St Helens, Weather by CustomWeather, © 2015

Note: Actual official high and low records may vary slightly from our data, if they occured in-between our weather recording intervals... More about our weather records

Advertising

St Helens weather history for previous 24 hours

 ConditionsComfort  
Time TempWeatherWind HumidityBarometerVisibility
12:50 PM
Fri, Jul 3
70 °FPassing clouds.7 mph57%30.24 "HgN/A
12:20 PM70 °FPassing clouds.7 mph64%30.27 "HgN/A
11:50 AM68 °FPassing clouds.8 mph64%30.27 "HgN/A
11:20 AM68 °FPassing clouds.8 mph64%30.27 "HgN/A
10:50 AM66 °FPassing clouds.9 mph73%30.27 "HgN/A
10:20 AM64 °FPassing clouds.8 mph78%30.30 "HgN/A
9:50 AM64 °FPassing clouds.10 mph78%30.30 "HgN/A
9:20 AM63 °FPassing clouds.6 mph83%30.30 "HgN/A
8:50 AM61 °FSunny.6 mph88%30.30 "Hg10 mi
8:20 AM61 °FPassing clouds.5 mph88%30.30 "HgN/A
7:50 AM57 °FSunny.5 mph94%30.30 "Hg10 mi
7:20 AM57 °FPassing clouds.5 mph94%30.27 "HgN/A
6:50 AM55 °FPassing clouds.6 mph94%30.27 "HgN/A
6:20 AM55 °FSunny.2 mph94%30.27 "Hg10 mi
5:50 AM54 °FPassing clouds.6 mph94%30.27 "HgN/A
5:20 AM54 °FClear.3 mph94%30.27 "Hg10 mi
4:50 AM52 °FClear.5 mph100%30.27 "Hg10 mi
4:20 AM54 °FClear.5 mph94%30.27 "Hg10 mi
3:50 AM55 °FClear.2 mph88%30.27 "Hg10 mi
3:20 AM55 °FClear.5 mph88%30.27 "Hg10 mi
2:50 AM55 °FClear.6 mph88%30.24 "Hg10 mi
2:20 AM55 °FClear.2 mph94%30.24 "Hg10 mi
1:50 AM55 °FClear.3 mph88%30.24 "Hg10 mi
1:20 AM55 °FClear.2 mph88%30.24 "Hg10 mi
12:50 AM57 °FClear.6 mph82%30.21 "Hg10 mi
12:20 AM57 °FClear.6 mph82%30.21 "Hg10 mi
11:50 PM
Thu, Jul 2
57 °FClear.5 mph82%30.21 "Hg10 mi
11:20 PM57 °FPassing clouds.6 mph88%30.21 "HgN/A
10:50 PM59 °FPassing clouds.7 mph82%30.21 "HgN/A
10:20 PM59 °FPassing clouds.6 mph82%30.18 "HgN/A
9:50 PM59 °FSunny.3 mph88%30.18 "Hg10 mi
9:20 PM59 °FPassing clouds.3 mph88%30.18 "HgN/A
8:50 PM61 °FPassing clouds.5 mph83%30.15 "HgN/A
8:20 PM63 °FSunny.2 mph77%30.15 "Hg10 mi
7:50 PM63 °FSunny.3 mph77%30.15 "Hg10 mi
7:20 PM63 °FPassing clouds.2 mph77%30.12 "HgN/A
6:50 PM63 °FPassing clouds.2 mph83%30.12 "HgN/A
6:20 PM61 °FScattered showers. Scattered clouds.5 mph83%30.15 "HgN/A
5:50 PM61 °FLight rain. Scattered clouds.6 mph83%30.12 "HgN/A
5:20 PM61 °FLight rain. Scattered clouds.6 mph83%30.12 "HgN/A
4:50 PM59 °FLight rain. Scattered clouds.15 mph82%30.12 "HgN/A
4:20 PM61 °FLight rain. Scattered clouds.13 mph77%30.09 "HgN/A
3:50 PM63 °FLight rain. Partly sunny.9 mph83%30.09 "Hg4 mi
3:20 PM63 °FRain. Broken clouds.13 mph88%30.07 "Hg4 mi
2:50 PM64 °FRain. Partly sunny.13 mph83%30.07 "Hg3 mi
2:20 PM66 °FScattered clouds.9 mph78%30.04 "HgN/A
1:50 PM70 °FScattered clouds.9 mph73%30.04 "HgN/A
1:20 PM68 °FScattered clouds.7 mph78%30.07 "HgN/A
Weather by CustomWeather, © 2015

See weather overviewHow to use our weather pages